Weather in Bronsky Vatras

Russia / Nizhny Novgorod Oblast'     55°51′15″N   45°27′35″E
temp.,
°C
wind,
m/s
gust,
m/s
humid.,
%
clouds,
%
prec.,
mm/h
press.,
hPa
HPBL,
m
7 may, fri
fri700:00+11s51479100 0.0 1011408
03:00+10s5138282 0.0 1011310
06:00+12s51275100 0.0 1010334
09:00+13s61371100 0.0 1010561
12:00+14ssw71268100 0.1 10101205
15:00+7nw81089100 0.9 1012497
18:00+7nw3690100 1.3 1014341
21:00+6sw1191100 1.3 101611
8 may, sat
sat800:00+5ssw2292100 0.0 101723
03:00+4sw11900 0.0 101810
06:00+7se12840 0.0 101881
09:00+11se34645 0.0 1017731
12:00+14se4551100 0.0 10151459
15:00+15se665974 0.0 10131451
18:00+12sse6977100 0.1 1012622
21:00+9se51190100 0.1 1011285
9 may, sun
sun900:00+10sse51385100 0.0 1010293
03:00+10sse51184100 0.2 1009306
06:00+10sse61592100 0.8 1009442
09:00+14s71176100 0.9 1009692
12:00+16s7971100 0.0 10101145
15:00+13sse71289100 1.0 1010593
18:00+10wnw4695100 1.3 1013321
21:00+9wnw359597 2.5 1016286
10 may, mon
mon1000:00+7nnw2496100 0.0 1017155
03:00+6nw3797100 0.0 1019179
06:00+7nnw4796100 0.0 1022336
09:00+7nnw5896100 0.1 1024338
12:00+12nne4582100 0.1 1025674
15:00+12nne578062 0.1 1026741
18:00+13nne587669 0.0 1027729
21:00+8nne378935 0.0 1028144
11 may, tue
tue1100:00+6nne38915 0.0 1029157
03:00+5nne410955 0.0 1030221
06:00+7ne5118787 0.0 1031357
09:00+12ene696225 0.0 1031710
12:00+16ene67462 0.0 1030990
15:00+17ene56442 0.0 10291133
18:00+15ene36632 0.0 1029196
21:00+10ene34725 0.0 103047